Simultaneous Nadir Overpasses (SNOs) Predictions

Prediction of SNOs between GOES-14 and AQUA Satellite Orbit:

Table of predicted SNOs for the next 14.0 days since TLE Epoch: 3/6/2021
Index Date Time (GOES-14) GOES-14 Lat,Lon AQUA Lat,Lon Distance(km) Time Diff (sec)
1 03/06/2021 20:23:57 -0.05,-104.26 0.32,-102.47 203.40 80
2 03/07/2021 08:45:13 0.06,-104.40 0.77,-107.63 367.61 80
3 03/09/2021 08:33:02 0.07,-104.41 0.12,-104.68 30.40 80
4 03/11/2021 08:23:30 0.07,-104.42 -0.49,-101.71 307.15 80
5 03/11/2021 20:44:53 -0.08,-104.30 -0.60,-106.90 295.98 80
6 03/13/2021 20:30:01 -0.07,-104.31 0.01,-103.94 41.63 80
7 03/15/2021 20:17:50 -0.07,-104.32 0.62,-100.98 379.60 80
8 03/16/2021 08:39:05 0.08,-104.44 0.46,-106.14 193.76 80
9 03/18/2021 08:29:34 0.08,-104.46 -0.22,-103.19 144.62 80
10 03/18/2021 20:50:57 -0.08,-104.37 -0.92,-108.37 455.15 80
